Jefferson, NC

9:46 AM EDT on July 28, 2017 (GMT -0400)
Ashe County

Weather History for KGEV - January, 2003

Change the Weather History Date:

Thursday, January 2, 2003

  Actual Average Record
Temperature  
Mean Temperature 48 °F -  
Max Temperature 53 °F 44 °F 62 °F (2005)
Min Temperature 44 °F 24 °F 9 °F (1977)
Degree Days  
Heating Degree Days 16    
Moisture  
Dew Point 47 °F    
Average Humidity 91    
Maximum Humidity 100    
Minimum Humidity 82    
Precipitation  
Precipitation 0.00 in - - ()
Sea Level Pressure  
Sea Level Pressure 29.82 in    
Wind  
Wind Speed 6 mph (South)    
Max Wind Speed 14 mph    
Max Gust Speed 29 mph    
Visibility 8 miles    
Events Fog , Rain    
Averages and records for this station are not official NWS values.
T = Trace of Precipitation, MM = Missing Value Source: NWS Daily Summary

Daily Weather History Graph

Daily Weather History Graph

Search for Another Location

Airport or City:

Trip Planner

Search our weather history database for the weather conditions in past years. The results will help you decide how hot, cold, wet, or windy it might be!

Date:

Astronomy

Jan. 02, 2003 Rise Set
Actual Time 7:37 AM EST 5:21 PM EST
Civil Twilight 7:08 AM EST 5:50 PM EST
Nautical Twilight 6:36 AM EST 6:22 PM EST
Astronomical Twilight 6:05 AM EST 6:53 PM EST
Moon 7:36 AM EST (1/2) 5:10 PM EST (1/2)
Length of Visible Light 10h 41m
Length of Day
9h 44m
Waning Crescent, 0% of the Moon is Illuminated
Jan 2
Waning Crescent
Jan 2
New
Jan 10
First Quarter
Jan 18
Full
Jan 25
Last Quarter

Hourly Weather History & Observations

Time (EST) Temp. Windchill Dew Point Humidity Pressure Visibility Wind Dir Wind Speed Gust Speed Precip Events Conditions
12:00 AM 53.6 °F - 50.0 °F 88% 29.77 in 10.0 mi WNW 9.2 mph 19.6 mph N/A   Overcast
12:20 AM 53.6 °F - 50.0 °F 88% 29.77 in 10.0 mi WNW 12.7 mph 18.4 mph N/A   Overcast
12:40 AM 51.8 °F - 48.2 °F 88% 29.79 in 10.0 mi NW 6.9 mph 24.2 mph N/A   Overcast
1:00 AM 51.8 °F - 48.2 °F 88% 29.78 in 10.0 mi NW 9.2 mph - N/A   Overcast
1:21 AM 50.0 °F - 48.2 °F 94% 29.78 in 10.0 mi WNW 8.1 mph - N/A   Overcast
1:40 AM 53.6 °F - 50.0 °F 88% 29.78 in 10.0 mi WNW 9.2 mph 28.8 mph N/A   Overcast
2:00 AM 51.8 °F - 48.2 °F 88% 29.79 in 10.0 mi WNW 8.1 mph - N/A   Overcast
2:20 AM 50.0 °F - 46.4 °F 87% 29.79 in 10.0 mi WNW 4.6 mph - N/A   Overcast
2:40 AM 50.0 °F - 46.4 °F 87% 29.80 in 10.0 mi WNW 8.1 mph - N/A   Overcast
3:00 AM 50.0 °F - 46.4 °F 87% 29.79 in 10.0 mi WNW 13.8 mph 21.9 mph N/A   Overcast
3:20 AM 50.0 °F - 46.4 °F 87% 29.80 in 10.0 mi WNW 9.2 mph - N/A   Overcast
3:40 AM 50.0 °F - 46.4 °F 87% 29.79 in 10.0 mi WNW 10.4 mph 18.4 mph N/A   Overcast
4:00 AM 50.0 °F - 48.2 °F 94% 29.79 in 10.0 mi WNW 6.9 mph 10.4 mph N/A   Overcast
4:20 AM 50.0 °F - 48.2 °F 94% 29.81 in 10.0 mi West 4.6 mph 16.1 mph N/A   Overcast
4:42 AM 50.0 °F - 48.2 °F 94% 29.80 in 10.0 mi West 5.8 mph - N/A   Overcast
5:00 AM 50.0 °F - 46.4 °F 87% 29.80 in 10.0 mi West 8.1 mph - N/A   Overcast
5:20 AM 50.0 °F - 46.4 °F 87% 29.79 in 10.0 mi West 8.1 mph 20.7 mph N/A   Overcast
5:40 AM 50.0 °F - 46.4 °F 87% 29.80 in 10.0 mi West 4.6 mph - N/A   Overcast
6:00 AM 50.0 °F - 46.4 °F 87% 29.80 in 10.0 mi Calm Calm - N/A   Overcast
6:20 AM 50.0 °F - 46.4 °F 87% 29.81 in 10.0 mi Calm Calm - N/A   Overcast
6:40 AM 50.0 °F - 48.2 °F 94% 29.82 in 10.0 mi Calm Calm - N/A   Overcast
7:00 AM 50.0 °F - 46.4 °F 87% 29.82 in 10.0 mi Calm Calm - N/A   Overcast
7:20 AM 50.0 °F - 46.4 °F 87% 29.83 in 10.0 mi Calm Calm - N/A   Overcast
7:40 AM 50.0 °F - 46.4 °F 87% 29.83 in 10.0 mi Calm Calm - N/A   Mostly Cloudy
8:00 AM 50.0 °F - 46.4 °F 87% 29.84 in 10.0 mi Calm Calm - N/A   Scattered Clouds
8:20 AM 48.2 °F - 46.4 °F 93% 29.85 in 10.0 mi Calm Calm - N/A   Scattered Clouds
8:40 AM 48.2 °F - 46.4 °F 93% 29.85 in 10.0 mi Calm Calm - N/A   Overcast
9:00 AM 48.2 °F - 46.4 °F 93% 29.86 in 10.0 mi Calm Calm - N/A   Overcast
9:20 AM 48.2 °F - 46.4 °F 93% 29.86 in 10.0 mi SSE 3.5 mph - N/A   Overcast
9:40 AM 50.0 °F - 48.2 °F 94% 29.86 in 10.0 mi Calm Calm - N/A   Overcast
10:00 AM 50.0 °F - 48.2 °F 94% 29.87 in 10.0 mi SSE 4.6 mph - N/A   Overcast
10:20 AM 53.6 °F - 50.0 °F 88% 29.86 in 10.0 mi SSE 5.8 mph - N/A   Overcast
10:40 AM 51.8 °F - 48.2 °F 88% 29.86 in 10.0 mi SSE 3.5 mph - N/A   Overcast
11:00 AM 53.6 °F - 50.0 °F 88% 29.86 in 10.0 mi SSE 5.8 mph - N/A   Overcast
11:20 AM 53.6 °F - 50.0 °F 88% 29.86 in 10.0 mi SSE 3.5 mph - N/A   Overcast
11:40 AM 53.6 °F - 48.2 °F 82% 29.85 in 10.0 mi SSE 4.6 mph - N/A   Overcast
12:00 PM 53.6 °F - 48.2 °F 82% 29.84 in 10.0 mi South 6.9 mph - N/A   Overcast
12:20 PM 53.6 °F - 48.2 °F 82% 29.84 in 10.0 mi South 4.6 mph - N/A   Overcast
12:40 PM 53.6 °F - 48.2 °F 82% 29.83 in 10.0 mi SSE 5.8 mph - N/A   Overcast
1:00 PM 50.0 °F - 48.2 °F 94% 29.82 in 10.0 mi SSE 3.5 mph - N/A   Overcast
1:20 PM 51.8 °F - 48.2 °F 88% 29.82 in 10.0 mi SE 3.5 mph - N/A   Overcast
1:40 PM 53.6 °F - 50.0 °F 88% 29.80 in 10.0 mi SSE 5.8 mph - N/A   Overcast
2:00 PM 53.6 °F - 50.0 °F 88% 29.80 in 10.0 mi SE 8.1 mph - N/A   Overcast
2:20 PM 53.6 °F - 50.0 °F 88% 29.80 in 10.0 mi SSE 3.5 mph - N/A   Mostly Cloudy
2:40 PM 53.6 °F - 51.8 °F 94% 29.80 in 10.0 mi SSE 5.8 mph - N/A   Mostly Cloudy
3:00 PM 53.6 °F - 51.8 °F 94% 29.80 in 10.0 mi SSE 6.9 mph - N/A   Overcast
3:20 PM 50.0 °F - 48.2 °F 94% 29.81 in 10.0 mi SSE 5.8 mph - N/A   Overcast
3:40 PM 48.2 °F - 46.4 °F 93% 29.81 in 10.0 mi SSE 8.1 mph - N/A   Overcast
4:00 PM 46.4 °F 44.3 °F 46.4 °F 100% 29.82 in 4.0 mi SSE 4.6 mph - N/A   Overcast
4:20 PM 44.6 °F 40.7 °F 44.6 °F 100% 29.82 in 0.2 mi SE 6.9 mph - N/A Fog Fog
4:40 PM 44.6 °F 40.7 °F 44.6 °F 100% 29.82 in 0.2 mi SSE 6.9 mph - N/A Fog Fog
5:00 PM 44.6 °F 41.4 °F 44.6 °F 100% 29.83 in 0.2 mi South 5.8 mph - N/A Fog Fog
5:21 PM 44.6 °F 42.2 °F 44.6 °F 100% 29.83 in 0.2 mi South 4.6 mph - N/A Fog Fog
5:40 PM 44.6 °F 42.2 °F 44.6 °F 100% 29.83 in 0.5 mi South 4.6 mph - N/A Rain Light Rain
6:00 PM 44.6 °F 43.1 °F 44.6 °F 100% 29.82 in 0.8 mi SSE 3.5 mph - N/A   Light Drizzle
6:20 PM 44.6 °F 41.4 °F 44.6 °F 100% 29.82 in 0.5 mi SSE 5.8 mph - N/A Rain Light Rain
6:40 PM 44.6 °F 42.2 °F 44.6 °F 100% 29.82 in 0.2 mi SSE 4.6 mph - N/A Rain Light Rain
7:00 PM 44.6 °F 43.1 °F 44.6 °F 100% 29.82 in 0.5 mi SSE 3.5 mph - N/A Rain Light Rain
7:20 PM 44.6 °F 42.2 °F 44.6 °F 100% 29.82 in 0.5 mi SSE 4.6 mph - N/A Rain Rain
7:40 PM 44.6 °F 41.4 °F 44.6 °F 100% 29.81 in 0.5 mi SSE 5.8 mph - N/A Fog Fog
8:00 PM 42.8 °F 40.1 °F 42.8 °F 100% 29.82 in 0.2 mi SSE 4.6 mph - N/A Fog Fog
8:20 PM 42.8 °F - 42.8 °F 100% 29.82 in 0.5 mi Calm Calm - N/A Rain Rain
8:40 PM 42.8 °F 41.1 °F 42.8 °F 100% 29.82 in 0.5 mi South 3.5 mph - 0.01 in Rain Light Rain
9:00 PM 42.8 °F - 42.8 °F 100% 29.82 in 0.5 mi Calm Calm - N/A Rain Light Rain
9:20 PM 42.8 °F 41.1 °F 42.8 °F 100% 29.81 in 0.5 mi SSE 3.5 mph - 0.01 in Rain Light Rain
9:40 PM 42.8 °F 41.1 °F 42.8 °F 100% 29.81 in 0.2 mi SSE 3.5 mph - 0.01 in Rain Light Rain
10:00 PM 42.8 °F 39.3 °F 42.8 °F 100% 29.80 in 0.2 mi SSE 5.8 mph - N/A Rain Light Rain
10:20 PM 42.8 °F 41.1 °F 42.8 °F 100% 29.81 in 0.5 mi South 3.5 mph - 0.01 in Rain Light Rain
10:40 PM 42.8 °F 41.1 °F 42.8 °F 100% 29.80 in 0.5 mi SSE 3.5 mph - 0.03 in Rain Rain
11:00 PM 42.8 °F 41.1 °F 42.8 °F 100% 29.80 in 0.5 mi SSE 3.5 mph - 0.01 in Rain Rain
11:20 PM 42.8 °F 41.1 °F 42.8 °F 100% 29.79 in 0.5 mi SSE 3.5 mph - 0.03 in Rain Light Rain
11:40 PM 42.8 °F 39.3 °F 42.8 °F 100% 29.78 in 0.5 mi SSE 5.8 mph - 0.04 in Rain Light Rain